Weather History for Barcelona / Aeropuerto, Spain

Change the Weather History Date:

Tuesday, August 13, 2013

  Actual Average Record
Temperature  
Mean Temperature 81 °F -  
Max Temperature 88 °F 78 °F - ()
Min Temperature 74 °F 65 °F - ()
Cooling Degree Days 16    
Growing Degree Days 31 (Base 50)    
Moisture  
Dew Point 66 °F    
Average Humidity 61    
Maximum Humidity 83    
Minimum Humidity 41    
Precipitation  
Precipitation 0.00 in 0.09 in - ()
Sea Level Pressure  
Sea Level Pressure 30.02 in    
Wind  
Wind Speed 6 mph ()    
Max Wind Speed 13 mph    
Max Gust Speed -    
Visibility 7.1 miles    
Events      
T = Trace of Precipitation, MM = Missing Value Source: Averaged Metar Reports

Daily Weather History Graph

Daily Weather History Graph

Search for Another Location

Airport:

Trip Planner

Search our weather history database for the weather conditions in past years. The results will help you decide how hot, cold, wet, or windy it might be!

Date:

Astronomy

Aug. 13, 2013 Rise Set
Actual Time 6:58 AM CEST 8:53 PM CEST
Civil Twilight 6:29 AM CEST 9:23 PM CEST
Nautical Twilight 5:52 AM CEST 9:59 PM CEST
Astronomical Twilight 5:13 AM CEST 10:38 PM CEST
Moon 1:42 PM CEST (8/13) No Moon Set
Length of Visible Light 14h 54m
Length of Day
13h 54m
Waxing Crescent, 39% of the Moon is Illuminated
Aug 13
Waxing Crescent
Aug 14
First Quarter
Aug 21
Full
Aug 28
Last Quarter
Sep 5
New

Hourly Weather History & Observations

Time (CEST) Temp. Heat Index Dew Point Humidity Pressure Visibility Wind Dir Wind Speed Gust Speed Precip Events Conditions
12:00 AM 77.0 °F - 71.6 °F 83% 29.98 in 6.2 mi SW 10.4 mph - N/A   Partly Cloudy
12:30 AM 78.8 °F - 71.6 °F 78% 30.01 in 6.2 mi SW 12.7 mph - N/A   Partly Cloudy
1:00 AM 78.8 °F - 69.8 °F 74% 30.01 in 6.2 mi WSW 12.7 mph - N/A   Partly Cloudy
1:30 AM 78.8 °F - 66.2 °F 65% 30.01 in 6.2 mi WSW 9.2 mph - N/A   Partly Cloudy
2:00 AM 78 °F - 67 °F 62% 30.00 in 19 mi Calm Calm - -   Scattered Clouds
2:00 AM 78.8 °F - 66.2 °F 65% 30.01 in 6.2 mi West 3.5 mph - N/A   Partly Cloudy
2:30 AM 78.8 °F - 64.4 °F 61% 29.98 in 6.2 mi SSW 3.5 mph - N/A   Partly Cloudy
3:00 AM 78.8 °F - 68.0 °F 69% 29.98 in 6.2 mi SSW 5.8 mph - N/A   Partly Cloudy
3:30 AM 77.0 °F - 68.0 °F 74% 29.98 in 6.2 mi SW 8.1 mph - N/A   Partly Cloudy
4:00 AM 78.8 °F - 68.0 °F 69% 29.98 in 6.2 mi SSW 11.5 mph - N/A   Partly Cloudy
4:30 AM 77.0 °F - 66.2 °F 69% 29.98 in 6.2 mi WSW 11.5 mph - N/A   Partly Cloudy
5:00 AM 77.0 °F - 68.0 °F 74% 29.98 in 6.2 mi WSW 9.2 mph - N/A   Partly Cloudy
5:30 AM 77.0 °F - 66.2 °F 69% 29.98 in 6.2 mi West 8.1 mph - N/A   Partly Cloudy
6:00 AM 77.0 °F - 60.8 °F 57% 29.98 in 6.2 mi WNW 4.6 mph - N/A   Partly Cloudy
6:30 AM 75.2 °F - 60.8 °F 61% 29.98 in 6.2 mi NNW 4.6 mph - N/A   Partly Cloudy
7:00 AM 77.0 °F - 60.8 °F 57% 29.98 in 6.2 mi NE 4.6 mph - N/A   Partly Cloudy
7:30 AM 75.2 °F - 60.8 °F 61% 29.98 in 6.2 mi Variable 2.3 mph - N/A   Partly Cloudy
8:00 AM 76 °F - 62 °F 53% 29.99 in 19 mi North 9.2 mph - -   Scattered Clouds
8:00 AM 77.0 °F - 60.8 °F 57% 29.98 in 6.2 mi NW 3.5 mph - N/A   Partly Cloudy
8:30 AM 77.0 °F - 60.8 °F 57% 29.98 in 6.2 mi NW 6.9 mph - N/A   Partly Cloudy
9:00 AM 77.0 °F - 60.8 °F 57% 30.01 in 6.2 mi NNW 5.8 mph - N/A   Partly Cloudy
9:30 AM 80.6 °F 81.1 °F 59.0 °F 48% 30.01 in 6.2 mi NW 4.6 mph - N/A   Partly Cloudy
10:00 AM 82.4 °F 82.9 °F 60.8 °F 48% 30.01 in 6.2 mi WSW 1.2 mph - N/A   Partly Cloudy
10:30 AM 86.0 °F 86.1 °F 60.8 °F 43% 30.01 in 6.2 mi NE 2.3 mph - N/A   Partly Cloudy
11:00 AM 84.2 °F 85.6 °F 64.4 °F 51% 30.04 in 6.2 mi East 6.9 mph - N/A   Partly Cloudy
11:30 AM 86.0 °F 90.4 °F 69.8 °F 58% 30.04 in 6.2 mi East 6.9 mph - N/A   Partly Cloudy
12:00 PM 84.2 °F 88.4 °F 69.8 °F 62% 30.04 in 6.2 mi ESE 6.9 mph - N/A   Partly Cloudy
12:30 PM 86.0 °F 87.3 °F 64.4 °F 48% 30.04 in 6.2 mi East 6.9 mph - N/A   Partly Cloudy
1:00 PM 86.0 °F 87.3 °F 64.4 °F 48% 30.04 in 6.2 mi ESE 6.9 mph - N/A   Partly Cloudy
1:30 PM 86.0 °F 87.3 °F 64.4 °F 48% 30.04 in 6.2 mi ESE 6.9 mph - N/A   Partly Cloudy
2:00 PM 87 °F - 66 °F 41% 30.05 in 17 mi South 5.8 mph - -   Scattered Clouds
2:00 PM 86.0 °F 87.3 °F 64.4 °F 48% 30.04 in 6.2 mi SSE 5.8 mph - N/A   Partly Cloudy
2:30 PM 86.0 °F 86.6 °F 62.6 °F 45% 30.04 in 6.2 mi South 5.8 mph - N/A   Partly Cloudy
3:00 PM 86.0 °F 87.3 °F 64.4 °F 48% 30.04 in 6.2 mi South 5.8 mph - N/A   Partly Cloudy
3:30 PM 86.0 °F 89.4 °F 68.0 °F 55% 30.04 in 6.2 mi SSE 6.9 mph - N/A   Partly Cloudy
4:00 PM 86.0 °F 88.2 °F 66.2 °F 51% 30.04 in 6.2 mi South 6.9 mph - N/A   Partly Cloudy
4:30 PM 84.2 °F 86.6 °F 66.2 °F 55% 30.01 in 6.2 mi South 6.9 mph - N/A   Partly Cloudy
5:00 PM 84.2 °F 88.4 °F 69.8 °F 62% 30.04 in 6.2 mi South 5.8 mph - N/A   Partly Cloudy
5:30 PM 84.2 °F 89.6 °F 71.6 °F 66% 30.01 in 6.2 mi South 6.9 mph - N/A   Partly Cloudy
6:00 PM 84.2 °F 89.6 °F 71.6 °F 66% 30.04 in 6.2 mi SE 5.8 mph - N/A   Partly Cloudy
6:30 PM 84.2 °F 89.6 °F 71.6 °F 66% 30.04 in 6.2 mi SE 5.8 mph - N/A   Partly Cloudy
7:00 PM 82.4 °F 87.2 °F 71.6 °F 70% 30.04 in 6.2 mi ESE 4.6 mph - N/A   Partly Cloudy
7:30 PM 82.4 °F 88.2 °F 73.4 °F 74% 30.04 in 6.2 mi East 8.1 mph - N/A   Scattered Clouds
8:00 PM 81 °F - 74 °F 74% 30.04 in 19 mi SE 4.6 mph - -   Scattered Clouds
8:00 PM 80.6 °F 84.6 °F 71.6 °F 74% 30.04 in 6.2 mi East 4.6 mph - N/A   Scattered Clouds
8:30 PM 82.4 °F 86.3 °F 69.8 °F 66% 30.04 in 6.2 mi SE 2.3 mph - N/A   Partly Cloudy
9:00 PM 82.4 °F 85.4 °F 68.0 °F 62% 30.04 in 6.2 mi Variable 2.3 mph - N/A   Partly Cloudy
9:30 PM 80.6 °F 83.2 °F 68.0 °F 65% 30.04 in 6.2 mi SE 2.3 mph - N/A   Partly Cloudy
10:00 PM 80.6 °F 83.9 °F 69.8 °F 70% 30.04 in 6.2 mi West 2.3 mph - N/A   Partly Cloudy
10:30 PM 80.6 °F 82.7 °F 66.2 °F 61% 30.04 in 6.2 mi NW 11.5 mph - N/A   Partly Cloudy
11:00 PM 80.6 °F 82.3 °F 64.4 °F 58% 30.04 in 6.2 mi WNW 5.8 mph - N/A   Partly Cloudy
11:30 PM 80.6 °F 82.3 °F 64.4 °F 58% 30.04 in 6.2 mi NW 6.9 mph - N/A   Partly Cloudy